Wahoo, NE

4:36 PM CST on December 08, 2016 (GMT -0600)
Wahoo Municipal

Weather History for KAHQ - October, 2012

Change the Weather History Date:

Thursday, October 25, 2012

  Actual Average Record
Temperature  
Mean Temperature 40 °F -  
Max Temperature 44 °F 63 °F 81 °F (1989)
Min Temperature 32 °F 36 °F 21 °F (1975)
Degree Days  
Heating Degree Days 26    
Moisture  
Dew Point 32 °F    
Average Humidity 80    
Maximum Humidity 92    
Minimum Humidity 70    
Precipitation  
Precipitation 0.69 in - - ()
Sea Level Pressure  
Sea Level Pressure 30.06 in    
Wind  
Wind Speed 20 mph (NNW)    
Max Wind Speed 31 mph    
Max Gust Speed 41 mph    
Visibility 9 miles    
Events Rain    
Averages and records for this station are not official NWS values.
T = Trace of Precipitation, MM = Missing Value Source: NWS Daily Summary

Daily Weather History Graph

Daily Weather History Graph

Search for Another Location

Airport or City:

Trip Planner

Search our weather history database for the weather conditions in past years. The results will help you decide how hot, cold, wet, or windy it might be!

Date:

Astronomy

Oct. 25, 2012 Rise Set
Actual Time 7:50 AM CDT 6:30 PM CDT
Civil Twilight 7:21 AM CDT 6:58 PM CDT
Nautical Twilight 6:49 AM CDT 7:30 PM CDT
Astronomical Twilight 6:17 AM CDT 8:02 PM CDT
Moon 4:18 PM CDT (10/25) 3:45 AM CDT (10/25)
Length of Visible Light 11h 36m
Length of Day
10h 40m
Waxing Gibbous, 84% of the Moon is Illuminated
Oct 25
Waxing Gibbous
Oct 29
Full
Nov 6
Last Quarter
Nov 13
New
Nov 20
First Quarter

Hourly Weather History & Observations

Time (CDT) Temp. Windchill Dew Point Humidity Pressure Visibility Wind Dir Wind Speed Gust Speed Precip Events Conditions
12:15 AM 45.5 °F 39.2 °F 40.3 °F 82% 29.74 in 10.0 mi North 13.8 mph - N/A   Overcast
12:35 AM 45.1 °F 37.3 °F 39.4 °F 80% 29.71 in 10.0 mi North 19.6 mph 24.2 mph N/A Rain Light Rain
12:55 AM 44.8 °F 36.9 °F 38.8 °F 80% 29.66 in 10.0 mi North 19.6 mph 26.5 mph N/A   Overcast
1:15 AM 44.6 °F 37.4 °F 39.6 °F 82% 29.83 in 10.0 mi NW 16.1 mph 41.4 mph 0.02 in Rain Rain
1:35 AM 41.9 °F 33.7 °F 39.4 °F 91% 29.74 in 1.2 mi North 17.3 mph 34.5 mph 0.34 in   Unknown
1:55 AM 41.5 °F 31.9 °F 39.4 °F 92% 29.71 in 1.0 mi North 23.0 mph 32.2 mph 0.52 in   Overcast
2:35 AM 41.4 °F 32.7 °F 39.2 °F 92% 29.75 in 2.5 mi NNW 18.4 mph 27.6 mph 0.15 in   Unknown
2:55 AM 41.0 °F 31.9 °F 38.8 °F 92% 29.77 in 10.0 mi NNW 19.6 mph 27.6 mph 0.16 in Rain Light Rain
3:15 AM 40.6 °F 30.4 °F 37.9 °F 90% 29.75 in 10.0 mi NNW 24.2 mph 32.2 mph N/A   Overcast
3:35 AM 40.6 °F 30.9 °F 37.4 °F 88% 29.77 in 10.0 mi NNW 21.9 mph 29.9 mph N/A   Overcast
3:55 AM 40.1 °F 29.9 °F 37.4 °F 90% 29.78 in 10.0 mi NNW 23.0 mph 31.1 mph N/A Rain Light Rain
4:15 AM 40.1 °F 29.2 °F 37.0 °F 89% 29.79 in 10.0 mi NNW 26.5 mph 31.1 mph N/A Rain Light Rain
4:35 AM 39.6 °F 29.0 °F 36.7 °F 89% 29.80 in 7.0 mi NNW 24.2 mph 32.2 mph N/A Rain Light Rain
4:55 AM 39.4 °F 28.1 °F 36.5 °F 89% 29.80 in 10.0 mi NNW 27.6 mph 33.4 mph N/A   Drizzle
5:15 AM 38.5 °F 27.8 °F 35.6 °F 89% 29.81 in 7.0 mi NNW 23.0 mph 35.7 mph N/A Rain Light Rain
5:35 AM 37.9 °F 26.3 °F 35.1 °F 89% 29.83 in 10.0 mi NNW 26.5 mph 33.4 mph 0.01 in Rain Rain
5:55 AM 37.9 °F 26.6 °F 35.2 °F 90% 29.83 in 10.0 mi NNW 25.3 mph 31.1 mph 0.01 in   Light Drizzle
6:55 AM 37.2 °F 24.5 °F 34.0 °F 88% 29.87 in 10.0 mi NNW 31.1 mph 35.7 mph N/A   Overcast
7:15 AM 36.5 °F 24.4 °F 33.1 °F 87% 29.88 in 10.0 mi NNW 26.5 mph 35.7 mph N/A   Overcast
7:35 AM 36.5 °F 24.7 °F 32.9 °F 87% 29.90 in 10.0 mi NNW 25.3 mph 35.7 mph N/A   Overcast
8:35 AM 35.2 °F 24.1 °F 32.5 °F 90% 29.93 in 2.0 mi NNW 20.7 mph 33.4 mph N/A Rain Heavy Rain
8:55 AM 35.2 °F 23.2 °F 32.9 °F 91% 29.96 in 5.0 mi NNW 24.2 mph 32.2 mph N/A Rain Light Rain
9:15 AM 35.8 °F 23.4 °F 32.7 °F 89% 29.97 in 10.0 mi NNW 26.5 mph 36.8 mph N/A Rain Light Rain
9:35 AM 35.8 °F 23.2 °F 32.9 °F 89% 29.99 in 5.0 mi NNW 27.6 mph 34.5 mph N/A Rain Rain
9:55 AM 35.8 °F 23.4 °F 32.9 °F 89% 30.01 in 10.0 mi NNW 26.5 mph 35.7 mph N/A Rain Light Rain
10:15 AM 36.5 °F 25.7 °F 32.5 °F 86% 30.02 in 10.0 mi NNW 20.7 mph 33.4 mph N/A   Overcast
10:55 AM 36.7 °F 25.4 °F 32.4 °F 84% 30.04 in 10.0 mi NNW 23.0 mph 31.1 mph N/A   Overcast
11:15 AM 37.2 °F 27.9 °F 32.9 °F 84% 30.06 in 10.0 mi NW 16.1 mph 33.4 mph N/A   Overcast
11:55 AM 37.4 °F 25.6 °F 32.2 °F 81% 30.08 in 10.0 mi NNW 26.5 mph 32.2 mph N/A   Overcast
12:15 PM 37.8 °F 26.8 °F 32.0 °F 80% 30.09 in 10.0 mi NNW 23.0 mph 33.4 mph N/A   Overcast
12:35 PM 37.9 °F 27.9 °F 32.2 °F 80% 30.09 in 10.0 mi NNW 19.6 mph 32.2 mph N/A   Overcast
12:55 PM 38.3 °F 27.3 °F 31.8 °F 77% 30.09 in 10.0 mi NNW 24.2 mph 33.4 mph N/A   Overcast
1:15 PM 38.7 °F 28.0 °F 31.8 °F 76% 30.10 in 10.0 mi NNW 23.0 mph 29.9 mph N/A   Overcast
1:55 PM 39.2 °F 28.5 °F 32.0 °F 75% 30.10 in 10.0 mi NNW 24.2 mph 27.6 mph N/A   Overcast
2:15 PM 39.2 °F 29.0 °F 32.0 °F 75% 30.11 in 10.0 mi NNW 21.9 mph 28.8 mph N/A   Overcast
2:35 PM 38.7 °F 28.0 °F 31.6 °F 76% 30.12 in 10.0 mi NW 23.0 mph 28.8 mph N/A   Overcast
2:55 PM 38.7 °F 28.6 °F 31.6 °F 76% 30.13 in 10.0 mi NNW 20.7 mph 28.8 mph N/A   Overcast
3:15 PM 38.3 °F 27.8 °F 30.4 °F 73% 30.14 in 10.0 mi NW 21.9 mph 29.9 mph N/A   Overcast
3:35 PM 38.5 °F 28.6 °F 30.0 °F 72% 30.15 in 10.0 mi NW 19.6 mph 32.2 mph N/A   Overcast
3:55 PM 38.8 °F 28.8 °F 30.2 °F 71% 30.16 in 10.0 mi NNW 20.7 mph 31.1 mph N/A   Overcast
4:15 PM 38.3 °F 28.1 °F 29.8 °F 72% 30.17 in 10.0 mi NNW 20.7 mph 29.9 mph N/A   Overcast
4:35 PM 37.8 °F 27.4 °F 30.0 °F 74% 30.18 in 10.0 mi NW 20.7 mph 28.8 mph N/A   Overcast
4:55 PM 37.6 °F 27.7 °F 29.7 °F 73% 30.20 in 10.0 mi NNW 18.4 mph 27.6 mph N/A   Overcast
5:15 PM 37.2 °F 27.3 °F 29.3 °F 73% 30.21 in 10.0 mi NW 18.4 mph 26.5 mph N/A   Overcast
5:35 PM 36.9 °F 25.9 °F 29.1 °F 74% 30.22 in 10.0 mi NNW 21.9 mph 26.5 mph N/A   Overcast
5:55 PM 36.7 °F 26.0 °F 28.9 °F 74% 30.22 in 10.0 mi NNW 20.7 mph 26.5 mph N/A   Overcast
6:15 PM 36.0 °F 23.9 °F 27.7 °F 72% 30.23 in 10.0 mi NNW 25.3 mph 29.9 mph N/A   Overcast
6:35 PM 36.0 °F 26.0 °F 28.4 °F 74% 30.25 in 10.0 mi NNW 17.3 mph 24.2 mph N/A   Overcast
6:55 PM 36.0 °F 26.0 °F 27.7 °F 72% 30.28 in 10.0 mi NNW 17.3 mph 25.3 mph N/A   Overcast
7:15 PM 36.0 °F 26.7 °F 28.9 °F 76% 30.29 in 10.0 mi NNW 15.0 mph 19.6 mph N/A   Overcast
7:35 PM 36.0 °F 26.3 °F 28.0 °F 73% 30.30 in 10.0 mi NNW 16.1 mph 23.0 mph N/A   Overcast
7:55 PM 36.0 °F 26.0 °F 28.2 °F 73% 30.30 in 10.0 mi NNW 17.3 mph 23.0 mph N/A   Overcast
8:15 PM 36.0 °F 25.6 °F 27.5 °F 71% 30.31 in 10.0 mi NNW 18.4 mph 23.0 mph N/A   Overcast
8:35 PM 36.0 °F 27.5 °F 28.2 °F 73% 30.32 in 10.0 mi NNW 12.7 mph 21.9 mph N/A   Overcast
8:55 PM 36.0 °F 25.6 °F 28.0 °F 73% 30.32 in 10.0 mi NNW 18.4 mph 24.2 mph N/A   Overcast
9:15 PM 36.0 °F 26.7 °F 27.7 °F 72% 30.33 in 10.0 mi NNW 15.0 mph 24.2 mph N/A   Overcast
9:35 PM 35.8 °F 24.5 °F 26.8 °F 70% 30.33 in 10.0 mi NNW 21.9 mph 29.9 mph N/A   Overcast
9:55 PM 35.8 °F 25.7 °F 27.1 °F 71% 30.34 in 10.0 mi NNW 17.3 mph 24.2 mph N/A   Overcast
10:15 PM 35.8 °F 27.3 °F 27.5 °F 72% 30.34 in 10.0 mi NNW 12.7 mph - N/A   Overcast
10:35 PM 35.8 °F 26.5 °F 27.5 °F 72% 30.35 in 10.0 mi NNW 15.0 mph 19.6 mph N/A   Overcast
10:55 PM 35.8 °F 26.1 °F 28.0 °F 73% 30.35 in 10.0 mi NNW 16.1 mph 20.7 mph N/A   Overcast
11:15 PM 36.0 °F 26.7 °F 28.0 °F 73% 30.34 in 10.0 mi NNW 15.0 mph - N/A   Overcast
11:35 PM 34.3 °F 27.0 °F 27.1 °F 75% 30.34 in 10.0 mi NNW 9.2 mph - N/A   Scattered Clouds
11:55 PM 32.9 °F 25.9 °F 27.1 °F 79% 30.34 in 10.0 mi NW 8.1 mph - N/A   Clear